Madrid El Retiro

latitud = 40° 24' 40''N | longitud = 003° 40' 41''W
667 metros sobre el nivel del mar | datos mensuales

Fecha, hora, temperatura, viento dirección y velocidad, humedad y presión.

  • 16-08-2018 02:00:00 | 26.70°C | Sudeste |9.00 km/h | 51.00% | 938.40 hPa
  • 16-08-2018 01:00:00 | 27.30°C | Nordeste |5.00 km/h | 43.00% | 938.10 hPa
  • 16-08-2018 00:00:00 | 25.70°C | Norte |5.00 km/h | 42.00% | 937.70 hPa
  • 15-08-2018 23:00:00 | 26.80°C | Noroeste |7.00 km/h | 39.00% | 937.90 hPa
  • 15-08-2018 22:00:00 | 28.00°C | Oeste |4.00 km/h | 37.00% | 937.60 hPa
  • 15-08-2018 21:00:00 | 29.80°C | Oeste |2.00 km/h | 36.00% | 937.50 hPa
  • 15-08-2018 20:00:00 | 31.80°C | Sudoeste |8.00 km/h | 35.00% | 937.30 hPa
  • 15-08-2018 19:00:00 | 32.70°C | Sudoeste |5.00 km/h | 35.00% | 937.50 hPa
  • 15-08-2018 18:00:00 | 33.20°C | Noroeste |2.00 km/h | 36.00% | 937.90 hPa
  • 15-08-2018 17:00:00 | 32.90°C | Oeste |3.00 km/h | 37.00% | 938.60 hPa
  • 15-08-2018 16:00:00 | 33.00°C | Oeste |4.00 km/h | 40.00% | 939.10 hPa
  • 15-08-2018 15:00:00 | 32.50°C | Sur |2.00 km/h | 44.00% | 939.70 hPa
  • 15-08-2018 14:00:00 | 30.90°C | Sudeste |5.00 km/h | 48.00% | 940.40 hPa
  • 15-08-2018 13:00:00 | 28.80°C | Este |4.00 km/h | 51.00% | 940.90 hPa
  • 15-08-2018 12:00:00 | 26.50°C | Nordeste |4.00 km/h | 55.00% | 941.30 hPa
  • 15-08-2018 11:00:00 | 24.50°C | Nordeste |4.00 km/h | 56.00% | 940.30 hPa
  • 15-08-2018 10:00:00 | 21.80°C | Nordeste |9.00 km/h | 55.00% | 941.10 hPa
  • 15-08-2018 09:00:00 | 20.00°C | Nordeste |15.00 km/h | 55.00% | 941.00 hPa
  • 15-08-2018 08:00:00 | 19.80°C | Nordeste |11.00 km/h | 55.00% | 940.90 hPa
  • 15-08-2018 07:00:00 | 20.00°C | Nordeste |12.00 km/h | 54.00% | 940.40 hPa
  • 15-08-2018 06:00:00 | 20.60°C | Nordeste |10.00 km/h | 53.00% | 940.40 hPa
  • 15-08-2018 05:00:00 | 21.00°C | Nordeste |11.00 km/h | 52.00% | 940.30 hPa
  • 15-08-2018 04:00:00 | 21.60°C | Nordeste |13.00 km/h | 51.00% | 940.50 hPa
  • 15-08-2018 03:00:00 | 22.40°C | Nordeste |17.00 km/h | 49.00% | 940.50 hPa